When you browse on this site, cookies collect data to enhance your experience and personalize the content and advertising you see.
Visit our Privacy Policy to learn more. By continuing to use the site, you agree to this use of cookies and data.
  • en Suisse
  • Liste des pays
  • À 7 jours
  • Température de l'eau
  • Carte satellitaire
  • Carte météo
  • Widgets météo
  • user-avatar
    Se connecter

    Météo par heure à Brégence

    Ce jour, 25 Mai, Samedi

    Heure Température Précipitation Vent Pression Humidité
    00:00 +7°C° 0 mm 1 m/s 644 mmHg 88%
    01:00 +5°C° 0 mm 2 m/s 644 mmHg 88%
    02:00 +6°C° 0 mm 1 m/s 644 mmHg 87%
    03:00 +6°C° 0 mm 1 m/s 644 mmHg 87%
    04:00 +5°C° 0 mm 1 m/s 644 mmHg 87%
    05:00 +7°C° 0 mm 1 m/s 644 mmHg 83%
    06:00 +8°C° 0 mm 1 m/s 645 mmHg 79%
    07:00 +9°C° 0 mm 0 m/s 645 mmHg 75%
    08:00 +11°C° 0 mm 1 m/s 646 mmHg 70%
    09:00 +13°C° 0 mm 1 m/s 646 mmHg 66%
    10:00 +14°C° 0 mm 1 m/s 647 mmHg 62%
    11:00 +14°C° 0.3 mm 1 m/s 647 mmHg 63%
    12:00 +14°C° 0.3 mm 1 m/s 647 mmHg 65%
    13:00 +14°C° 0.3 mm 2 m/s 647 mmHg 67%
    14:00 +14°C° 0.8 mm 1 m/s 646 mmHg 72%
    15:00 +13°C° 0.8 mm 1 m/s 646 mmHg 78%
    16:00 +12°C° 0.8 mm 1 m/s 646 mmHg 83%
    17:00 +11°C° 0.9 mm 1 m/s 646 mmHg 87%
    18:00 +10°C° 0.9 mm 1 m/s 646 mmHg 91%
    19:00 +9°C° 0.9 mm 1 m/s 645 mmHg 95%
    20:00 +9°C° 0.5 mm 1 m/s 646 mmHg 96%
    21:00 +8°C° 0.5 mm 1 m/s 646 mmHg 96%
    22:00 +8°C° 0.5 mm 1 m/s 646 mmHg 96%
    23:00 +8°C° 0.2 mm 1 m/s 646 mmHg 96%

    Demain, 26 Mai, Dimanche

    Heure Température Précipitation Vent Pression Humidité
    00:00 +7°C° 0.2 mm 1 m/s 646 mmHg 96%
    01:00 +7°C° 0.2 mm 1 m/s 645 mmHg 96%
    02:00 +7°C° 0 mm 1 m/s 645 mmHg 96%
    03:00 +6°C° 0 mm 1 m/s 645 mmHg 96%
    04:00 +6°C° 0 mm 1 m/s 645 mmHg 96%
    05:00 +6°C° 0 mm 0 m/s 645 mmHg 94%
    06:00 +7°C° 0 mm 0 m/s 646 mmHg 93%
    07:00 +8°C° 0 mm 0 m/s 646 mmHg 92%
    08:00 +9°C° 0.1 mm 0 m/s 646 mmHg 86%
    09:00 +11°C° 0.1 mm 1 m/s 647 mmHg 81%
    10:00 +12°C° 0.1 mm 1 m/s 647 mmHg 75%
    11:00 +13°C° 0.1 mm 1 m/s 647 mmHg 71%
    12:00 +14°C° 0.1 mm 1 m/s 647 mmHg 67%
    13:00 +15°C° 0.1 mm 1 m/s 647 mmHg 63%
    14:00 +15°C° 0.1 mm 1 m/s 647 mmHg 63%
    15:00 +15°C° 0.1 mm 1 m/s 647 mmHg 63%
    16:00 +15°C° 0.1 mm 1 m/s 647 mmHg 63%
    17:00 +14°C° 0.1 mm 1 m/s 647 mmHg 69%
    18:00 +13°C° 0.1 mm 1 m/s 646 mmHg 75%
    19:00 +11°C° 0.1 mm 0 m/s 646 mmHg 81%
    20:00 +10°C° 0 mm 0 m/s 646 mmHg 84%
    21:00 +10°C° 0 mm 1 m/s 646 mmHg 87%
    22:00 +8°C° 0 mm 1 m/s 645 mmHg 90%
    23:00 +8°C° 0 mm 1 m/s 645 mmHg 91%

    Après-demain, 27 Mai, Lundi

    Heure Température Précipitation Vent Pression Humidité
    00:00 +8°C° 0 mm 1 m/s 645 mmHg 92%
    01:00 +8°C° 0 mm 1 m/s 645 mmHg 93%
    02:00 +8°C° 0 mm 1 m/s 645 mmHg 94%
    03:00 +7°C° 0 mm 1 m/s 644 mmHg 94%
    04:00 +7°C° 0 mm 1 m/s 644 mmHg 95%
    05:00 +8°C° 0 mm 1 m/s 644 mmHg 92%
    06:00 +8°C° 0 mm 0 m/s 644 mmHg 89%
    07:00 +9°C° 0 mm 0 m/s 645 mmHg 86%
    08:00 +10°C° 0 mm 0 m/s 645 mmHg 81%
    09:00 +13°C° 0 mm 1 m/s 645 mmHg 76%
    10:00 +14°C° 0 mm 1 m/s 645 mmHg 70%
    11:00 +15°C° 0.1 mm 1 m/s 645 mmHg 68%
    12:00 +15°C° 0.1 mm 1 m/s 645 mmHg 67%
    13:00 +15°C° 0.1 mm 1 m/s 645 mmHg 65%
    14:00 +16°C° 0.1 mm 1 m/s 645 mmHg 64%
    15:00 +16°C° 0.1 mm 1 m/s 644 mmHg 63%
    16:00 +16°C° 0.1 mm 1 m/s 644 mmHg 62%
    17:00 +15°C° 0.2 mm 1 m/s 644 mmHg 70%
    18:00 +14°C° 0.2 mm 1 m/s 643 mmHg 77%
    19:00 +13°C° 0.2 mm 1 m/s 643 mmHg 85%
    20:00 +11°C° 0.5 mm 1 m/s 643 mmHg 88%
    21:00 +10°C° 0.5 mm 1 m/s 642 mmHg 92%
    22:00 +9°C° 0.5 mm 1 m/s 642 mmHg 96%
    23:00 +9°C° 0.8 mm 1 m/s 642 mmHg 96%

    28 Mai, Mardi

    Heure Température Précipitation Vent Pression Humidité
    00:00 +9°C° 0.8 mm 1 m/s 642 mmHg 97%
    01:00 +9°C° 0.8 mm 1 m/s 642 mmHg 98%
    02:00 +9°C° 1.3 mm 1 m/s 641 mmHg 98%
    03:00 +9°C° 1.3 mm 1 m/s 641 mmHg 98%
    04:00 +8°C° 1.3 mm 2 m/s 641 mmHg 99%
    05:00 +7°C° 1.5 mm 2 m/s 641 mmHg 98%
    06:00 +7°C° 1.5 mm 2 m/s 641 mmHg 98%
    07:00 +7°C° 1.5 mm 2 m/s 641 mmHg 98%
    08:00 +6°C° 0.9 mm 2 m/s 641 mmHg 98%
    09:00 +6°C° 0.9 mm 2 m/s 641 mmHg 98%
    10:00 +5°C° 0.9 mm 2 m/s 641 mmHg 97%
    11:00 +5°C° 0.6 mm 2 m/s 641 mmHg 97%
    12:00 +5°C° 0.6 mm 2 m/s 641 mmHg 96%
    13:00 +6°C° 0.6 mm 1 m/s 641 mmHg 95%
    14:00 +6°C° 1.1 mm 1 m/s 641 mmHg 96%
    15:00 +6°C° 1.1 mm 1 m/s 641 mmHg 96%
    16:00 +6°C° 1.1 mm 1 m/s 641 mmHg 96%
    17:00 +5°C° 1.2 mm 1 m/s 642 mmHg 96%
    18:00 +5°C° 1.2 mm 1 m/s 642 mmHg 97%
    19:00 +5°C° 1.2 mm 1 m/s 642 mmHg 97%
    20:00 +4°C° 1.3 mm 1 m/s 642 mmHg 98%
    21:00 +4°C° 1.3 mm 1 m/s 642 mmHg 98%
    22:00 +4°C° 1.3 mm 1 m/s 642 mmHg 98%
    23:00 +4°C° 1.8 mm 1 m/s 642 mmHg 98%

    29 Mai, Mercredi

    Heure Température Précipitation Vent Pression Humidité
    00:00 +4°C° 1.8 mm 1 m/s 642 mmHg 99%
    01:00 +3°C° 1.8 mm 1 m/s 643 mmHg 99%
    02:00 +3°C° 1.8 mm 1 m/s 643 mmHg 99%
    03:00 +3°C° 1.8 mm 1 m/s 643 mmHg 99%
    04:00 +3°C° 1.8 mm 1 m/s 643 mmHg 99%
    05:00 +2°C° 1.3 mm 2 m/s 643 mmHg 98%
    06:00 +2°C° 1.3 mm 2 m/s 644 mmHg 98%
    07:00 +1°C° 1.3 mm 3 m/s 644 mmHg 98%
    08:00 +2°C° 0.8 mm 2 m/s 644 mmHg 98%
    09:00 +2°C° 0.8 mm 2 m/s 645 mmHg 97%
    10:00 +2°C° 0.8 mm 2 m/s 645 mmHg 97%
    11:00 +3°C° 0.4 mm 2 m/s 645 mmHg 95%
    12:00 +3°C° 0.4 mm 2 m/s 646 mmHg 93%
    13:00 +4°C° 0.4 mm 2 m/s 646 mmHg 91%
    14:00 +4°C° 0.4 mm 2 m/s 647 mmHg 91%
    15:00 +4°C° 0.4 mm 2 m/s 647 mmHg 91%
    16:00 +4°C° 0.4 mm 2 m/s 647 mmHg 91%
    17:00 +5°C° 0.3 mm 1 m/s 647 mmHg 92%
    18:00 +5°C° 0.3 mm 1 m/s 648 mmHg 93%
    19:00 +4°C° 0.3 mm 1 m/s 648 mmHg 94%
    20:00 +4°C° 0.1 mm 1 m/s 648 mmHg 95%
    21:00 +2°C° 0.1 mm 0 m/s 649 mmHg 95%
    22:00 +2°C° 0.1 mm 0 m/s 649 mmHg 96%
    23:00 +2°C° 0.1 mm 0 m/s 649 mmHg 96%

    30 Mai, Jeudi

    Heure Température Précipitation Vent Pression Humidité
    00:00 +1°C° 0.1 mm 0 m/s 649 mmHg 96%
    01:00 +1°C° 0.1 mm 0 m/s 649 mmHg 97%
    02:00 +1°C° 0.1 mm 0 m/s 649 mmHg 97%
    03:00 +1°C° 0.1 mm 0 m/s 649 mmHg 97%
    04:00 +1°C° 0.1 mm 0 m/s 649 mmHg 97%
    05:00 +2°C° 0 mm 0 m/s 649 mmHg 96%
    06:00 +3°C° 0 mm 0 m/s 649 mmHg 94%
    07:00 +3°C° 0 mm 0 m/s 649 mmHg 93%
    08:00 +4°C° 0 mm 0 m/s 649 mmHg 87%
    09:00 +7°C° 0 mm 1 m/s 649 mmHg 82%
    10:00 +8°C° 0 mm 1 m/s 649 mmHg 77%
    11:00 +9°C° 0 mm 1 m/s 649 mmHg 74%
    12:00 +9°C° 0 mm 1 m/s 649 mmHg 71%
    13:00 +9°C° 0 mm 0 m/s 649 mmHg 69%
    14:00 +10°C° 0 mm 0 m/s 649 mmHg 65%
    15:00 +12°C° 0 mm 1 m/s 649 mmHg 61%
    16:00 +13°C° 0 mm 1 m/s 649 mmHg 57%
    17:00 +12°C° 0 mm 1 m/s 649 mmHg 62%
    18:00 +10°C° 0 mm 0 m/s 648 mmHg 68%
    19:00 +9°C° 0 mm 0 m/s 648 mmHg 74%
    20:00 +8°C° 0 mm 1 m/s 648 mmHg 77%
    21:00 +6°C° 0 mm 1 m/s 647 mmHg 80%
    22:00 +4°C° 0 mm 2 m/s 647 mmHg 83%
    23:00 +4°C° 0 mm 2 m/s 647 mmHg 82%
    Voir plus